Location: L�gaud
(45.7115°N, 1.7775°E)
Time: 18:37:16
(UTC+00:00)

Cosmos 2278 Rocket - Pass Details

Date: 03 March 2021
Orbit: 841 x 845 km, 71.0° (Epoch: 15 April)

Event Time Altitude Azimuth Distance (km) Brightness Sun altitude
Rises 18:39:48 0° 342° (NNW) 3,415 5.6 -10.8°
Reaches altitude 10° 18:43:27 10° 5° (N) 2,476 4.6 -11.4°
Maximum altitude 18:46:36 15° 40° (NE) 2,140 4.0 -12.0°
Enters shadow 18:48:45 12° 64° (ENE) 2,296 3.9 -12.3°
